Location: State Camp
(41.2367°N, 77.7828°W)
Time: 02:46:52
(UTC-04:00)

Amateur Radio Satellites - All Passes

Search period start: 01 November 2014 02:16
Search period end: 02 November 2014 01:16
Location: State Camp, 41.2367°N, 77.7828°W

Satellite Date Start Highest point End Downlink Frequencies (MHz)
Time Altitude Azimuth
ITAMSAT 1 01 Nov 02:23:34 02:27:04 18° 92° (E) 02:30:33 435.822 SSB
RS-15 01 Nov 02:24:00 02:31:35 20° 1° (N) 02:39:18 29.354 - 29.394 USB, Beacon 29.352 USB
Oscar 19 01 Nov 02:32:29 02:37:31 55° 100° (E) 02:42:32 437.125 CW, 437.150 USB
AO-27 01 Nov 03:10:10 03:15:16 50° 100° (E) 03:20:19 436.795 MHz FM
Oscar 16 01 Nov 03:19:44 03:24:43 53° 288° (WNW) 03:29:41 437.025 USB, Beacon 2401.1428
Gurwin Techsat 1B 01 Nov 03:28:48 03:33:49 40° 98° (E) 03:38:47 435.225 FM
TMSAT-1 01 Nov 03:34:56 03:39:45 34° 97° (E) 03:44:31 436.925 FM
Sapphire 01 Nov 03:36:09 03:41:16 43° 306° (NW) 03:46:27 437.095 MHz 1200 baud AX-25 AFSK
AO-Echo 01 Nov 03:50:07 03:55:17 52° 288° (WNW) 04:00:23 ?
Uribyol 2 01 Nov 03:53:39 03:58:47 62° 288° (WNW) 04:03:52 436.500 FM
PCSat 01 Nov 03:58:30 04:03:08 28° 311° (NW) 04:07:48 145.825 MHz
AO-7 01 Nov 03:59:52 04:05:01 17° 90° (E) 04:10:08 29.400 - 29.500 MHz
ITAMSAT 1 01 Nov 04:01:48 04:06:54 55° 288° (WNW) 04:11:57 435.822 SSB
JAS-1B 01 Nov 04:05:32 04:12:01 40° 293° (WNW) 04:19:37 435.800 - 435.900 CW/SSB
Oscar 19 01 Nov 04:12:55 04:16:26 19° 297° (WNW) 04:19:56 437.125 CW, 437.150 USB
RS-15 01 Nov 04:38:44 04:48:39 35° 36° (NE) 04:58:50 29.354 - 29.394 USB, Beacon 29.352 USB
PANSAT 01 Nov 04:49:08 04:50:03 11° 172° (S) 04:50:59 not established
AO-27 01 Nov 04:50:33 04:54:24 21° 297° (WNW) 04:58:14 436.795 MHz FM
Gurwin Techsat 1B 01 Nov 05:09:12 05:13:33 26° 295° (WNW) 05:17:54 435.225 FM
TMSAT-1 01 Nov 05:14:58 05:19:33 31° 293° (WNW) 05:24:08 436.925 FM
OPAL 01 Nov 05:18:38 05:23:41 65° 71° (ENE) 05:28:41 ?
Saudisat 1A 01 Nov 05:18:47 05:22:19 24° 113° (ESE) 05:25:52 436.775 MHz
STRAND 1 01 Nov 05:40:30 05:42:46 13° 59° (ENE) 05:45:02 ?
Uosat F 01 Nov 05:41:57 05:47:02 76° 103° (ESE) 05:52:03 435.120 FM
JAS-2 01 Nov 05:46:13 05:53:13 34° 93° (E) 05:59:57 435.800 - 435.900 CW/SSB, 435.910 FM
AO-7 01 Nov 05:50:26 05:58:49 88° 108° (ESE) 06:07:11 29.400 - 29.500 MHz
Hamsat 01 Nov 06:26:25 06:30:13 32° 97° (E) 06:34:01 145.90 MHz
PANSAT 01 Nov 06:28:00 06:29:25 12° 185° (S) 06:30:49 not established
RS-15 01 Nov 06:51:05 07:02:18 82° 241° (WSW) 07:14:01 29.354 - 29.394 USB, Beacon 29.352 USB
Saudisat 1A 01 Nov 06:57:37 07:01:41 36° 310° (NW) 07:05:47 436.775 MHz
OPAL 01 Nov 07:00:05 07:02:58 15° 267° (W) 07:05:50 ?
STRAND 1 01 Nov 07:16:05 07:21:13 85° 256° (WSW) 07:26:25 ?
Uosat F 01 Nov 07:22:36 07:25:10 14° 300° (WNW) 07:27:43 435.120 FM
JAS-2 01 Nov 07:30:49 07:38:24 53° 291° (WNW) 07:45:44 435.800 - 435.900 CW/SSB, 435.910 FM
MaSat-1 01 Nov 07:33:04 07:35:20 30° 60° (ENE) 07:37:28 437.345 MHz
AO-7 01 Nov 07:44:37 07:50:35 23° 308° (NW) 07:56:34 29.400 - 29.500 MHz
Hamsat 01 Nov 08:02:44 08:05:59 22° 292° (WNW) 08:09:14 145.90 MHz
SO-67 01 Nov 08:19:51 08:23:19 89° 104° (ESE) 08:26:45 435.3500 MHz FM
RS-15 01 Nov 09:05:48 09:12:59 20° 261° (W) 09:20:22 29.354 - 29.394 USB, Beacon 29.352 USB
HO-68 01 Nov 09:19:02 09:25:11 30° 95° (E) 09:31:17 435.675 MHz FM
JAS-2 01 Nov 09:19:19 09:21:40 12° 311° (NW) 09:24:01 435.800 - 435.900 CW/SSB, 435.910 FM
ISS 01 Nov 09:51:19 09:54:21 34° 137° (SE) 09:57:24 145.800 FM
UKube-1 01 Nov 10:12:37 10:16:13 24° 96° (E) 10:19:46 145.840 MHz, 145.915 MHz
ZACube-1 01 Nov 10:24:31 10:26:30 13° 91° (E) 10:28:28 437.345 MHz
Sapphire 01 Nov 10:41:00 10:45:28 25° 48° (NE) 10:49:54 437.095 MHz 1200 baud AX-25 AFSK
Oscar 11 01 Nov 10:46:18 10:50:34 58° 101° (E) 10:54:48 145.825 FM, Beacon 2401.500 USB
KITSAT 1 01 Nov 10:58:12 11:06:06 63° 115° (ESE) 11:14:03 435.175 FM
SO-50 01 Nov 10:59:19 11:03:31 41° 116° (ESE) 11:07:51 436.795 FM
PCSat 01 Nov 11:02:15 11:07:18 38° 53° (NE) 11:12:19 145.825 MHz
FUNcube-1 01 Nov 11:05:35 11:09:30 38° 98° (E) 11:13:22 145.950 - 145.970 MHz USB
HO-68 01 Nov 11:06:12 11:13:09 53° 293° (WNW) 11:20:03 435.675 MHz FM
ISS 01 Nov 11:28:01 11:31:02 32° 334° (NNW) 11:34:05 145.800 FM
UOSAT-12 01 Nov 11:42:15 11:42:39 10° 106° (ESE) 11:43:03 437.025 FM, 437.400 FM
UKube-1 01 Nov 11:48:35 11:52:23 30° 292° (WNW) 11:56:09 145.840 MHz, 145.915 MHz
ZACube-1 01 Nov 11:59:09 12:03:13 49° 287° (WNW) 12:07:12 437.345 MHz
Oscar 19 01 Nov 12:15:04 12:15:58 10° 57° (ENE) 12:16:51 437.125 CW, 437.150 USB
Sapphire 01 Nov 12:23:54 12:29:11 53° 246° (WSW) 12:34:26 437.095 MHz 1200 baud AX-25 AFSK
Oscar 11 01 Nov 12:24:09 12:26:15 13° 297° (WNW) 12:28:20 145.825 FM, Beacon 2401.500 USB
SO-50 01 Nov 12:40:26 12:44:13 25° 315° (NW) 12:48:06 436.795 FM
FUNcube-1 01 Nov 12:42:46 12:45:36 18° 294° (WNW) 12:48:24 145.950 - 145.970 MHz USB
PCSat 01 Nov 12:45:51 12:50:36 32° 251° (WSW) 12:55:20 145.825 MHz
AO-27 01 Nov 12:53:56 12:54:50 10° 57° (ENE) 12:55:43 436.795 MHz FM
KITSAT 1 01 Nov 12:54:46 13:01:59 35° 316° (NW) 13:09:14 435.175 FM
HO-68 01 Nov 12:58:09 12:59:15 10° 313° (NW) 13:00:20 435.675 MHz FM
Oscar 16 01 Nov 12:58:21 13:02:39 28° 66° (ENE) 13:06:58 437.025 USB, Beacon 2401.1428
JAS-1B 01 Nov 13:02:31 13:07:22 30° 65° (ENE) 13:12:17 435.800 - 435.900 CW/SSB
ISS 01 Nov 13:06:34 13:08:30 14° 354° (N) 13:10:26 145.800 FM
UOSAT-12 01 Nov 13:17:23 13:22:01 88° 302° (WNW) 13:26:46 437.025 FM, 437.400 FM
AO-Echo 01 Nov 13:25:16 13:29:20 25° 65° (ENE) 13:33:30 ?
Uribyol 2 01 Nov 13:33:16 13:37:30 26° 65° (ENE) 13:41:44 436.500 FM
ITAMSAT 1 01 Nov 13:41:18 13:45:42 28° 66° (ENE) 13:50:07 435.822 SSB
Saudisat 1A 01 Nov 13:44:55 13:48:27 23° 45° (NE) 13:51:59 436.775 MHz
Oscar 19 01 Nov 13:49:18 13:54:26 80° 75° (ENE) 13:59:35 437.125 CW, 437.150 USB
AO-27 01 Nov 14:28:13 14:33:26 77° 74° (ENE) 14:38:41 436.795 MHz FM
Oscar 16 01 Nov 14:37:08 14:41:51 36° 263° (W) 14:46:35 437.025 USB, Beacon 2401.1428
ISS 01 Nov 14:43:51 14:46:12 18° 14° (NNE) 14:48:32 145.800 FM
Gurwin Techsat 1B 01 Nov 14:49:48 14:55:02 64° 73° (ENE) 15:00:18 435.225 FM
JAS-1B 01 Nov 14:52:49 14:58:01 35° 263° (W) 15:03:12 435.800 - 435.900 CW/SSB
TMSAT-1 01 Nov 14:55:34 15:00:42 53° 71° (ENE) 15:05:52 436.925 FM
KITSAT 1 01 Nov 14:56:59 15:00:21 13° 343° (NNW) 15:03:43 435.175 FM
AO-7 01 Nov 14:58:49 15:05:24 28° 55° (NE) 15:12:01 29.400 - 29.500 MHz
UOSAT-12 01 Nov 15:00:09 15:02:52 15° 322° (NW) 15:05:37 437.025 FM, 437.400 FM
AO-Echo 01 Nov 15:03:10 15:07:51 40° 263° (W) 15:12:42 ?
Uribyol 2 01 Nov 15:11:50 15:16:44 41° 262° (W) 15:21:40 436.500 FM
Uosat F 01 Nov 15:19:42 15:22:05 14° 59° (ENE) 15:24:28 435.120 FM
ITAMSAT 1 01 Nov 15:20:15 15:25:02 36° 263° (W) 15:29:51 435.822 SSB
Saudisat 1A 01 Nov 15:23:59 15:28:12 44° 243° (WSW) 15:32:24 436.775 MHz
Oscar 19 01 Nov 15:32:33 15:34:21 12° 271° (W) 15:36:10 437.125 CW, 437.150 USB
JAS-2 01 Nov 16:01:00 16:04:28 15° 52° (NE) 16:08:07 435.800 - 435.900 CW/SSB, 435.910 FM
AO-27 01 Nov 16:11:16 16:13:30 13° 271° (W) 16:15:45 436.795 MHz FM
ISS 01 Nov 16:20:05 16:23:24 62° 33° (NNE) 16:26:42 145.800 FM
Gurwin Techsat 1B 01 Nov 16:32:15 16:35:26 16° 269° (W) 16:38:39 435.225 FM
TMSAT-1 01 Nov 16:37:12 16:40:55 19° 268° (W) 16:44:40 436.925 FM
AO-7 01 Nov 16:49:14 16:57:28 72° 254° (WSW) 17:05:47 29.400 - 29.500 MHz
Uosat F 01 Nov 16:55:09 17:00:11 79° 257° (WSW) 17:05:15 435.120 FM
KITSAT 1 01 Nov 16:57:03 17:00:13 12° 15° (NNE) 17:03:22 435.175 FM
Hamsat 01 Nov 17:20:08 17:23:26 23° 68° (ENE) 17:26:45 145.90 MHz
OPAL 01 Nov 17:29:59 17:32:55 16° 94° (E) 17:35:50 ?
JAS-2 01 Nov 17:41:48 17:48:07 76° 73° (ENE) 17:55:19 435.800 - 435.900 CW/SSB, 435.910 FM
ISS 01 Nov 17:57:43 17:59:45 15° 229° (SW) 18:01:46 145.800 FM
AO-7 01 Nov 18:48:27 18:51:37 12° 273° (W) 18:54:47 29.400 - 29.500 MHz
KITSAT 1 01 Nov 18:51:33 18:58:41 33° 43° (NE) 19:05:47 435.175 FM
SO-67 01 Nov 18:52:32 18:55:28 26° 71° (ENE) 18:58:24 435.3500 MHz FM
Hamsat 01 Nov 18:55:37 18:59:15 29° 264° (W) 19:02:53 145.90 MHz
OPAL 01 Nov 19:07:18 19:12:10 59° 290° (WNW) 19:17:01 ?
RS-15 01 Nov 19:10:37 19:14:44 13° 96° (E) 19:18:49 29.354 - 29.394 USB, Beacon 29.352 USB
STRAND 1 01 Nov 19:27:05 19:31:43 33° 97° (E) 19:36:17 ?
JAS-2 01 Nov 19:29:48 19:34:03 18° 274° (W) 19:38:39 435.800 - 435.900 CW/SSB, 435.910 FM
SO-50 01 Nov 19:30:35 19:35:10 40° 50° (NE) 19:39:46 436.795 FM
HO-68 01 Nov 19:48:35 19:54:01 24° 57° (ENE) 19:59:27 435.675 MHz FM
UOSAT-12 01 Nov 20:08:27 20:10:54 14° 37° (NE) 20:13:20 437.025 FM, 437.400 FM
SO-67 01 Nov 20:26:14 20:28:27 16° 267° (W) 20:30:40 435.3500 MHz FM
KITSAT 1 01 Nov 20:46:40 20:54:39 67° 245° (WSW) 21:02:36 435.175 FM
STRAND 1 01 Nov 21:06:21 21:10:48 30° 293° (WNW) 21:15:14 ?
UKube-1 01 Nov 21:08:18 21:11:41 23° 66° (ENE) 21:15:05 145.840 MHz, 145.915 MHz
MaSat-1 01 Nov 21:09:09 21:10:40 12° 106° (ESE) 21:12:08 437.345 MHz
SO-50 01 Nov 21:11:30 21:15:33 27° 247° (WSW) 21:19:36 436.795 FM
RS-15 01 Nov 21:13:57 21:24:48 68° 116° (ESE) 21:35:34 29.354 - 29.394 USB, Beacon 29.352 USB
ZACube-1 01 Nov 21:21:30 21:23:33 13° 63° (ENE) 21:25:35 437.345 MHz
HO-68 01 Nov 21:33:54 21:41:03 71° 256° (WSW) 21:48:15 435.675 MHz FM
Oscar 11 01 Nov 21:41:12 21:45:18 45° 72° (ENE) 21:49:25 145.825 FM, Beacon 2401.500 USB
UOSAT-12 01 Nov 21:47:06 21:51:51 78° 57° (ENE) 21:56:29 437.025 FM, 437.400 FM
FUNcube-1 01 Nov 22:01:42 22:05:44 33° 70° (ENE) 22:09:42 145.950 - 145.970 MHz USB
MaSat-1 01 Nov 22:42:02 22:45:44 46° 298° (WNW) 22:49:05 437.345 MHz
UKube-1 01 Nov 22:43:44 22:47:41 33° 262° (W) 22:51:39 145.840 MHz, 145.915 MHz
KITSAT 1 01 Nov 22:46:25 22:48:30 11° 263° (W) 22:50:36 435.175 FM
ZACube-1 01 Nov 22:54:56 22:59:26 65° 259° (W) 23:03:51 437.345 MHz
Oscar 11 01 Nov 23:19:06 23:21:42 16° 268° (W) 23:24:20 145.825 FM, Beacon 2401.500 USB
RS-15 01 Nov 23:27:47 23:37:51 40° 320° (NW) 23:48:01 29.354 - 29.394 USB, Beacon 29.352 USB
HO-68 01 Nov 23:28:18 23:29:56 11° 274° (W) 23:31:34 435.675 MHz FM
UOSAT-12 01 Nov 23:29:37 23:31:18 12° 253° (WSW) 23:32:58 437.025 FM, 437.400 FM
FUNcube-1 01 Nov 23:38:32 23:42:07 23° 265° (W) 23:45:41 145.950 - 145.970 MHz USB
Sapphire 02 Nov 01:23:59 01:27:47 20° 106° (ESE) 01:31:37 437.095 MHz 1200 baud AX-25 AFSK
PCSat 02 Nov 01:44:17 01:49:03 33° 110° (ESE) 01:53:51 145.825 MHz
RS-15 02 Nov 01:46:49 01:54:27 21° 354° (N) 01:02:13 29.354 - 29.394 USB, Beacon 29.352 USB
Oscar 19 02 Nov 01:01:25 01:05:47 28° 95° (E) 01:10:07 437.125 CW, 437.150 USB
